Content
SEND FEEDBACK

Daily
Averages
Monthly
Summary
United States of America

BOSTWICK, FLORIDA


Home > North America > United States > Florida
Elevation: 0 feet     Latitude: 29 45N     Longitude: 081 32W

WEATHER
 
SELECT A DAY
Number of Records: 338,847;   Date Range: 7/1/96 - 7/20/14
 
SHARE

PRINT THIS DATA

[ ← Previous Day ]
WEATHER ALMANAC - JANUARY 3, 2013
[ Next Day → ]
[ °C ]   °F
Weather ElementAverageHighLow
Temperature58.2 °F63 °F (1:58 am)51.1 °F (9:58 pm)
Dewpoint55.6 °F60.8 °F (2:05 am)48.2 °F (9:54 pm)
Humidity91.2 %96 % (7:58 pm)81 % (12:58 pm)
Barometer30.15 in30.25 in (9:54 pm)30.07 in (1:58 am)
Wind Speed9.3 mph15 mph (12:58 pm)
Weather ElementAverage
Visibility7.3 mi
Wind DirectionSSW (213.1 °)

Weather ElementTotal
Precipitation0.16 in
Heating Degree Days8 (Base 65)
Growing Degree Days7.1 (Base 50)
Averaged from 49 records on January 3, 2013
WEATHER CONDITIONS BREAKOUT
WIND DIRECTION BREAKOUT
WEATHER BY HOUR - JANUARY 3, 2013
[ °C ]   °F
Local TimeTemperatureDewpointHumidityBarometerVisibilityWind DirectionWind SpeedGust SpeedPrecipitationEventsConditions
1:58 AM63.0 °F60.1 °F90 %30.07 in10.0 miNorth (350°)5.8 mphOvercast
2:05 AM62.6 °F60.8 °F94 %30.07 in10.0 miNorth (360°)8.1 mphOvercast
2:12 AM62.6 °F60.8 °F94 %30.08 in10.0 miNorth (360°)8.1 mphOvercast
2:58 AM61.0 °F59.0 °F93 %30.08 in3.0 miNorth (10°)10.4 mph0.00 inRainLight Rain
3:58 AM60.1 °F57.9 °F93 %30.08 in9.0 miNorth (10°)6.9 mph0.00 inOvercast
4:33 AM60.8 °F57.2 °F88 %30.08 in8.0 miNorth (350°)5.8 mphOvercast
4:58 AM60.1 °F57.9 °F93 %30.08 in4.0 miNNW (340°)5.8 mphOvercast
5:58 AM60.1 °F57.9 °F93 %30.09 in6.0 miNorth (10°)6.9 mphOvercast
6:35 AM60.8 °F57.2 °F88 %30.11 in10.0 miNorth (360°)9.2 mphOvercast
6:58 AM60.1 °F57.9 °F93 %30.11 in9.0 miNorth (10°)8.1 mphOvercast
7:18 AM60.8 °F57.2 °F88 %30.12 in3.0 miNorth (360°)10.4 mphOvercast
7:31 AM59.0 °F57.2 °F94 %30.12 in2.5 miNorth (10°)6.9 mphOvercast
7:36 AM59.0 °F57.2 °F94 %30.12 in3.0 miNorth (10°)6.9 mphOvercast
7:58 AM60.1 °F57.9 °F93 %30.13 in10.0 miNorth (10°)8.1 mphOvercast
8:07 AM60.8 °F57.2 °F88 %30.13 in10.0 miNorth (10°)5.8 mphOvercast
8:58 AM61.0 °F57.9 °F90 %30.14 in10.0 miNorth (10°)11.5 mphOvercast
9:58 AM62.1 °F57.9 °F86 %30.15 in10.0 miNorth (360°)10.4 mphOvercast
10:58 AM61.0 °F57.9 °F90 %30.17 in10.0 miNorth (350°)11.5 mphOvercast
11:39 AM60.8 °F57.2 °F88 %30.16 in10.0 miNorth (350°)11.5 mphOvercast
11:52 AM60.8 °F57.2 °F88 %30.16 in10.0 miNorth (350°)11.5 mphOvercast
11:58 AM61.0 °F57.0 °F87 %30.15 in10.0 miNorth (360°)12.7 mphOvercast
12:02 PM60.8 °F57.2 °F88 %30.15 in10.0 miNorth (10°)10.4 mphOvercast
12:18 PM60.8 °F57.2 °F88 %30.14 in10.0 miNorth (360°)10.4 mphOvercast
12:58 PM61.0 °F55.0 °F81 %30.13 in10.0 miNorth (360°)15.0 mphOvercast
1:58 PM60.1 °F55.9 °F86 %30.13 in7.0 miNorth (350°)12.7 mph0.00 inRainLight Rain
2:02 PM59.0 °F55.4 °F88 %30.13 in10.0 miNorth (360°)13.8 mph0.00 inRainLight Rain
2:06 PM59.0 °F55.4 °F88 %30.13 in10.0 miNorth (10°)15.0 mph0.00 inRainLight Rain
2:58 PM57.9 °F55.0 °F90 %30.14 in10.0 miNorth (350°)10.4 mph0.00 inOvercast
3:02 PM57.2 °F55.4 °F94 %30.15 in10.0 miNorth (360°)10.4 mphOvercast
3:07 PM57.2 °F55.4 °F94 %30.15 in7.0 miNorth (350°)9.2 mphOvercast
3:37 PM59.0 °F55.4 °F88 %30.14 in5.0 miNorth (10°)9.2 mph0.00 inOvercast
3:58 PM59.0 °F54.0 °F83 %30.16 in5.0 miNorth (350°)9.2 mph0.00 inHaze
4:44 PM55.4 °F53.6 °F94 %30.17 in5.0 miNorth (10°)6.9 mph0.01 inRainLight Rain
4:58 PM55.9 °F53.1 °F90 %30.17 in5.0 miNNE (30°)6.9 mph0.02 inRainLight Rain
5:02 PM55.4 °F53.6 °F94 %30.17 in2.0 miNNE (20°)5.8 mph0.01 inRainLight Rain
5:46 PM55.4 °F53.6 °F94 %30.18 in2.0 miNorth (10°)8.1 mph0.04 inRainLight Rain
6:02 PM55.4 °F53.6 °F94 %30.18 in7.0 miNNE (30°)8.1 mph0.00 inRainLight Rain
6:19 PM55.4 °F53.6 °F94 %30.18 in10.0 miNorth (10°)8.1 mph0.00 inOvercast
6:39 PM55.4 °F53.6 °F94 %30.21 in10.0 miNorth (350°)8.1 mph0.00 inOvercast
6:58 PM55.9 °F54.0 °F93 %30.22 in3.0 miNorth (360°)9.2 mph0.01 inRainLight Rain
7:20 PM55.4 °F53.6 °F94 %30.20 in3.0 miNorth (10°)9.2 mph0.01 inRainLight Rain
7:26 PM55.4 °F53.6 °F94 %30.21 in3.0 miNorth (350°)8.1 mph0.01 inRainLight Rain
7:30 PM55.4 °F53.6 °F94 %30.21 in3.0 miNorth (350°)5.8 mph0.01 inRainLight Rain
7:58 PM55.0 °F54.0 °F96 %30.21 in3.0 miNorth (10°)13.8 mph0.01 inRainLight Rain
8:58 PM53.1 °F52.0 °F96 %30.23 in10.0 miNorth (350°)12.7 mph0.01 inOvercast
9:54 PM51.8 °F48.2 °F88 %30.25 in6.0 miNNW (340°)9.2 mph0.00 inRainLight Rain
9:58 PM51.1 °F50.0 °F96 %30.25 in5.0 miNNW (340°)12.7 mph0.01 inRainLight Rain
10:58 PM51.1 °F50.0 °F96 %30.25 in9.0 miNNW (330°)6.9 mph0.01 inRainLight Rain
11:58 PM51.1 °F50.0 °F96 %30.25 in10.0 miNNW (330°)9.2 mph0.00 inOvercast
Hourly data recorded from KSGJ, located miles away from Bostwick, Florida







STORIES FROM OUR PARTNERS